Weather History for KDYT - June, 2013

Change the Weather History Date:

Friday, June 28, 2013

  Actual Average Record
Temperature  
Mean Temperature 62 °F -  
Max Temperature 73 °F 71 °F 96 °F (1961)
Min Temperature 51 °F 50 °F 33 °F (2001)
Degree Days  
Heating Degree Days 3    
Growing Degree Days 12 (Base 50)    
Moisture  
Dew Point 57 °F    
Average Humidity 88    
Maximum Humidity 100    
Minimum Humidity 69    
Precipitation  
Precipitation 0.00 in - - ()
Sea Level Pressure  
Sea Level Pressure 29.75 in    
Wind  
Wind Speed 9 mph (NW)    
Max Wind Speed 16 mph    
Max Gust Speed 21 mph    
Visibility 9 miles    
Events Rain , Thunderstorm    
Averages and records for this station are not official NWS values.
T = Trace of Precipitation, MM = Missing Value Source: NWS Daily Summary

Daily Weather History Graph

Daily Weather History Graph

Search for Another Location

Airport or City:

Trip Planner

Search our weather history database for the weather conditions in past years. The results will help you decide how hot, cold, wet, or windy it might be!

Date:

Astronomy

Jun. 28, 2013 Rise Set
Actual Time 5:16 AM CDT 9:05 PM CDT
Civil Twilight 4:37 AM CDT 9:45 PM CDT
Nautical Twilight 3:43 AM CDT 10:38 PM CDT
Astronomical Twilight 2:26 AM CDT 11:55 PM CDT
Moon No Moon Rise 11:49 AM CDT (6/28)
Length of Visible Light 17h 07m
Length of Day
15h 49m
Waning Gibbous, 66% of the Moon is Illuminated
Jun 28
Waning Gibbous
Jun 29
Last Quarter
Jul 8
New
Jul 15
First Quarter
Jul 22
Full

Hourly Weather History & Observations

Time (CDT) Temp. Dew Point Humidity Pressure Visibility Wind Dir Wind Speed Gust Speed Precip Events Conditions
12:14 AM 66.2 °F 60.8 °F 83% 29.73 in 10.0 mi WSW 11.5 mph - N/A   Clear
12:33 AM 66.2 °F 60.8 °F 83% 29.72 in 10.0 mi WSW 12.7 mph - N/A   Scattered Clouds
12:53 AM 66.2 °F 60.8 °F 83% 29.72 in 10.0 mi WSW 10.4 mph - N/A   Scattered Clouds
1:33 AM 64.4 °F 60.8 °F 88% 29.71 in 10.0 mi WSW 10.4 mph - N/A   Clear
1:53 AM 64.4 °F 60.8 °F 88% 29.71 in 10.0 mi WSW 8.1 mph - N/A   Scattered Clouds
2:14 AM 64.4 °F 60.8 °F 88% 29.71 in 10.0 mi WSW 10.4 mph - N/A   Mostly Cloudy
2:33 AM 66.2 °F 60.8 °F 83% 29.70 in 10.0 mi West 10.4 mph - N/A   Overcast
2:53 AM 66.2 °F 60.8 °F 83% 29.70 in 10.0 mi West 11.5 mph - N/A   Overcast
3:14 AM 66.2 °F 60.8 °F 83% 29.69 in 10.0 mi West 13.8 mph - N/A   Mostly Cloudy
3:33 AM 66.2 °F 60.8 °F 83% 29.69 in 10.0 mi West 13.8 mph - N/A   Scattered Clouds
3:53 AM 66.2 °F 60.8 °F 83% 29.69 in 10.0 mi West 15.0 mph - N/A   Clear
4:13 AM 66.2 °F 60.8 °F 83% 29.69 in 10.0 mi West 16.1 mph - N/A   Clear
4:33 AM 64.4 °F 60.8 °F 88% 29.69 in 10.0 mi West 12.7 mph - N/A   Clear
4:54 AM 66.2 °F 60.8 °F 83% 29.70 in 10.0 mi West 11.5 mph - N/A   Scattered Clouds
5:13 AM 66.2 °F 60.8 °F 83% 29.70 in 10.0 mi West 10.4 mph - N/A   Mostly Cloudy
5:33 AM 66.2 °F 60.8 °F 83% 29.70 in 10.0 mi West 13.8 mph - N/A   Overcast
5:54 AM 66.2 °F 60.8 °F 83% 29.70 in 10.0 mi WSW 9.2 mph - N/A   Overcast
6:13 AM 66.2 °F 60.8 °F 83% 29.71 in 10.0 mi WSW 8.1 mph - N/A   Overcast
6:33 AM 66.2 °F 60.8 °F 83% 29.71 in 10.0 mi West 6.9 mph - N/A   Overcast
6:54 AM 66.2 °F 60.8 °F 83% 29.71 in 10.0 mi West 8.1 mph - N/A   Overcast
7:13 AM 66.2 °F 62.6 °F 88% 29.71 in 10.0 mi West 9.2 mph - N/A Rain Light Rain
7:33 AM 66.2 °F 62.6 °F 88% 29.70 in 10.0 mi West 6.9 mph - N/A   Overcast
7:54 AM 66.2 °F 62.6 °F 88% 29.71 in 10.0 mi WNW 9.2 mph - N/A   Overcast
8:13 AM 66.2 °F 62.6 °F 88% 29.71 in 10.0 mi West 9.2 mph - N/A Rain Rain
8:34 AM 66.2 °F 62.6 °F 88% 29.71 in 10.0 mi West 10.4 mph - N/A   Overcast
8:53 AM 66.2 °F 62.6 °F 88% 29.71 in 10.0 mi WNW 12.7 mph - N/A   Overcast
9:13 AM 68.0 °F 62.6 °F 83% 29.71 in 10.0 mi WNW 11.5 mph - N/A   Mostly Cloudy
9:34 AM 68.0 °F 62.6 °F 83% 29.71 in 10.0 mi NW 9.2 mph - N/A   Mostly Cloudy
9:53 AM 69.8 °F 62.6 °F 78% 29.71 in 10.0 mi NW 6.9 mph - N/A   Overcast
10:13 AM 69.8 °F 62.6 °F 78% 29.71 in 10.0 mi NW 10.4 mph - N/A   Mostly Cloudy
10:34 AM 69.8 °F 60.8 °F 73% 29.71 in 10.0 mi NNW 10.4 mph 20.7 mph N/A   Mostly Cloudy
10:53 AM 71.6 °F 62.6 °F 73% 29.71 in 10.0 mi NW 10.4 mph - N/A   Mostly Cloudy
11:13 AM 73.4 °F 62.6 °F 69% 29.71 in 10.0 mi NNW 11.5 mph - N/A   Mostly Cloudy
11:34 AM 66.2 °F 59.0 °F 78% 29.72 in 10.0 mi North 10.4 mph - N/A   Mostly Cloudy
11:53 AM 64.4 °F 59.0 °F 83% 29.73 in 10.0 mi North 12.7 mph - N/A   Overcast
12:14 PM 64.4 °F 59.0 °F 83% 29.74 in 10.0 mi NNW 9.2 mph - N/A   Overcast
12:34 PM 53.6 °F 50.0 °F 88% 29.75 in 10.0 mi ENE 13.8 mph - N/A   Overcast
12:53 PM 53.6 °F 50.0 °F 88% 29.76 in 10.0 mi East 10.4 mph - N/A   Overcast
1:14 PM 53.6 °F 50.0 °F 88% 29.76 in 10.0 mi ENE 9.2 mph - N/A   Overcast
1:33 PM 53.6 °F 50.0 °F 88% 29.76 in 10.0 mi ENE 9.2 mph - N/A   Overcast
1:53 PM 53.6 °F 48.2 °F 82% 29.77 in 10.0 mi ENE 9.2 mph - N/A   Overcast
2:14 PM 51.8 °F 50.0 °F 94% 29.77 in 5.0 mi ENE 10.4 mph - N/A   Drizzle
2:33 PM 51.8 °F 50.0 °F 94% 29.78 in 10.0 mi East 9.2 mph - N/A   Overcast
2:53 PM 53.6 °F 51.8 °F 94% 29.78 in 10.0 mi East 3.5 mph - N/A   Overcast
3:13 PM 51.8 °F 50.0 °F 94% 29.78 in 10.0 mi East 4.6 mph - N/A Rain Light Rain
3:33 PM 53.6 °F 50.0 °F 88% 29.78 in 10.0 mi Calm Calm - N/A Rain Light Rain
3:54 PM 51.8 °F 50.0 °F 94% 29.79 in 10.0 mi Calm Calm - N/A   Overcast
4:13 PM 53.6 °F 51.8 °F 94% 29.78 in 10.0 mi Calm Calm - N/A   Overcast
4:33 PM 53.6 °F 51.8 °F 94% 29.78 in 10.0 mi Calm Calm - N/A   Overcast
4:53 PM 55.4 °F 51.8 °F 88% 29.79 in 10.0 mi Calm Calm - N/A Thunderstorm Thunderstorm
5:13 PM 55.4 °F 53.6 °F 94% 29.79 in 10.0 mi Calm Calm - N/A Thunderstorm Mostly Cloudy
5:34 PM 60.8 °F 55.4 °F 82% 29.78 in 10.0 mi Calm Calm - N/A   Scattered Clouds
5:53 PM 57.2 °F 53.6 °F 88% 29.78 in 7.0 mi Calm Calm - N/A Rain Light Rain
6:13 PM 55.4 °F 53.6 °F 94% 29.79 in 7.0 mi Calm Calm - N/A Rain Light Rain
6:34 PM 57.2 °F 55.4 °F 94% 29.79 in 10.0 mi Calm Calm - N/A Rain Light Rain
6:53 PM 57.2 °F 55.4 °F 94% 29.79 in 10.0 mi Calm Calm - N/A   Scattered Clouds
7:14 PM 57.2 °F 55.4 °F 94% 29.79 in 10.0 mi East 4.6 mph - N/A   Scattered Clouds
7:34 PM 57.2 °F 55.4 °F 94% 29.80 in 10.0 mi Calm Calm - N/A Rain Rain
7:53 PM 57.2 °F 55.4 °F 94% 29.80 in 5.0 mi Calm Calm - N/A Rain Light Rain
8:14 PM 57.2 °F 55.4 °F 94% 29.80 in 5.0 mi ESE 5.8 mph - N/A Rain Rain
8:33 PM 57.2 °F 55.4 °F 94% 29.80 in 10.0 mi Calm Calm - N/A Rain Light Rain
8:54 PM 57.2 °F 55.4 °F 94% 29.81 in 10.0 mi Calm Calm - N/A   Light Drizzle
9:13 PM 55.4 °F 53.6 °F 94% 29.82 in 7.0 mi NE 9.2 mph - N/A Rain Rain
9:33 PM 53.6 °F 51.8 °F 94% 29.82 in 10.0 mi NE 6.9 mph - N/A   Light Drizzle
9:53 PM 53.6 °F 51.8 °F 94% 29.83 in 2.0 mi NNE 8.1 mph - N/A Rain Light Rain
10:14 PM 51.8 °F 51.8 °F 100% 29.83 in 5.0 mi NNE 6.9 mph - N/A Rain Light Rain
10:33 PM 51.8 °F 51.8 °F 100% 29.83 in 1.5 mi North 5.8 mph - N/A   Light Drizzle
10:53 PM 53.6 °F 51.8 °F 94% 29.83 in 7.0 mi North 4.6 mph - N/A   Overcast
11:14 PM 53.6 °F 51.8 °F 94% 29.82 in 10.0 mi Calm Calm - N/A   Overcast
11:33 PM 53.6 °F 51.8 °F 94% 29.82 in 5.0 mi Calm Calm - N/A   Drizzle
11:53 PM 53.6 °F 51.8 °F 94% 29.82 in 10.0 mi Calm Calm - N/A   Overcast